Погода Тегюльтя-Терде

Погода Тегюльтя-Терде : погода сейчас, прогноз погоды и архив. Всё, что Вы хотите узнать о погоде Тегюльтя-Терде!

Поиск расширенной информации на нашем сайте:

Полезная информация: http://lightun.ru/ чип тюнинг двигателя автомобилей jaguar.

Другие новости

Новости СМИ2

Главная страница сайта

Новости сайта

02.10.2013

Напоминаем, что на нашем новом сайте вы можете получить высокодетализированные прогнозы погоды по пунктам России, СНГ и мира (включающие важные для авиации метеовеличины, такие как направление и скорость ветра, видимость, явления погоды, количество и форма облачности, нижняя и верхняя граница облачности), а также ознакомиться с разнообразными материалами по авиационной метеорологии и подборкой полезных ссылок на эту тему.

Сайт Метеоцентр.Азия посвящён разработке технологий оптимизации авиаметеорологического обслуживания, включая проектирование и перспективное создание нескольких автоматизированных авиаметеорологических систем:
- система выпуска высокодетальных прогностических карт явлений погоды для нижнего воздушного пространства по России и ближнему зарубежью;
- система верификации прогнозов TAF (выпускаемых синоптиками официальных АМСГ РФ и ближнего зарубежья) и AUTOTAF (выпускаемых сайтом Метеоцентр.Азия) - выявление ошибок, онлайн-сопоставление с фактической погодой METAR, автоматическое внесение коррективов в прогнозы при резком отклонении фактической погоды от прогноза, подсчёт оправдываемости прогнозов по элементам и в целом;
- система обработки, анализа и отображения авиаметеорологической информации для применения провайдерами метеорологической информации.

Рекомендуем: предлагаются помещения сдам офис Бизнес центр Варшавка Sky у метро Чертановская

Погода Тегюльтя-Терде - сегодня

Время (UTC), дата Ветер
(°,м/с) 
Видим.   Явления Облачность Т
(°С)
Тd
(°С)
f(%) Тe
(°С)
Pmin
(гПа)
dP
(гПа)
Po
(мм)
O2
(г/м3)
Тmin Tmax R s Состояние
почвы
09 19.02.17 тихо ()   20000 м    3/0 верхняя 
[Ci fib]
-26.6 -31.2 65 -27  1019  746  335           
12 19.02.17 090 (В) 20000 м    ясно 
-34.6 -38.1 71 -36  1020.4  0.6  747  347    -20.5       
15 19.02.17 тихо ()   20000 м    ясно 
-37.5 -40.8 71 -38  1021.2  0.5  747  351           
18 19.02.17 тихо ()   20000 м    ясно 
-38 -41.6 69 -38  1020.7  -0.7  747  352           
21 19.02.17 тихо ()   20000 м    ясно 
-39.9 -43.4 69 -40  1022.1  1.4  748  355           
00 20.02.17 тихо ()   20000 м    8/0 верхняя 
[Ci fib]
-40.1 -43.4 71 -40  1022.3  748  355  -40.2      31  равномерный
сухой снег
100% 
03 20.02.17 тихо ()   20000 м    3/0 верхняя 
[Ci fib]
-30.1 -34.7 64 -30  1020.2  -1  747  340           
06 20.02.17 250 (З) 20000 м  слаб. снег  10/0 верхняя 
[Cs]
-17.3 -23.2 60 -17  1017.7  -1.2  746  323           
09 20.02.17 тихо ()   20000 м  {снег}  4/0 верхняя 
[Ci fib]
-21.3 -26.1 65 -21  1018.4  0.3  746  328           
12 20.02.17 тихо ()   20000 м  {снег}  ясно 
-31.3 -34.3 75 -31  1019.9  0.6  747  342    -17  0.3     
15 20.02.17 тихо ()   20000 м    3/0 верхняя 
[Ci fib]
-35.4 -38.4 74 -35  1020.7  0.4  747  348           
18 20.02.17 тихо ()   20000 м  слаб. снег  10/0 верхняя 
[Cs]
-34.2 -37.1 75 -34  1020.9  0.2  747  346           
21 20.02.17 тихо ()   20000 м  слаб. снег  10/0 верхняя 
[Cs]
-34.3 -37.1 76 -34  1021.1  0.2  747  346           
00 21.02.17 тихо ()   20000 м  слаб. снег  10/0 верхняя 
[Cs]
-35.9 -38.7 75 -36  1021.6  0.5  748  349  -36.8    0.3  31  равномерный
сухой снег
100% 
03 21.02.17 170 (Ю) 20000 м  {снег}  6/0 верхняя 
[Ci fib]
-26.4 -31.1 64 -27  1021.3  0.5  748  336           
06 21.02.17 270 (З) 20000 м  {снег}  8/4 1000 м верхняя 
[Sc|Ci fib]
-16.3 -22.3 60 -16  1019.6  -0.8  747  322           
09 21.02.17 тихо ()   20000 м    10/0 верхняя 
[Ci fib]
-19.6 -24.5 65 -20  1021.2  1.3  748  327           
12 21.02.17 тихо ()   20000 м    3/0 верхняя 
[Ci fib]
-32.9 -35.8 75 -33  1023.4  0.8  749  345    -16  0.0     
15 21.02.17 тихо ()   20000 м    ясно 
-37.4 -40.1 76 -37  1024.3  0.5  749  352           
18 21.02.17 тихо ()   20000 м  слаб. снег  10/0 верхняя 
[Cs]
-40 -43.4 70 -40  1025.1  0.4  750  356           
21 21.02.17 тихо ()   20000 м  {снег}  6/0 верхняя 
[Ci fib]
-41 -44.4 70 -41  1024.4  -0.7  749  357           
00 22.02.17 тихо ()   20000 м  {снег}  10/0 верхняя 
[Ci fib]
-41.3 -44.4 72 -41  1024.3  -0.1  749  358  -41.5    0.3  21  равномерный
сухой снег
100% 
03 22.02.17 200 (Ю) 20000 м  слаб. снег  10/0 верхняя 
[Cs]
-31.7 -36.2 64 -33  1022.6  -0.7  749  343           
06 22.02.17 тихо ()   20000 м  в посл. час снег  10/0 верхняя 
[Ci fib]
-21.2 -26 65 -21  1020.1  -1.4  748  328           
09 22.02.17 090 (В) 20000 м    10/0 верхняя 
[Ci fib]
-22.7 -26.7 70 -26  1019.6  -0.6  747  330           
Время (UTC), дата Ветер
(°,м/с) 
Видим.   Явления Облачность Т
(°С)
Тd
(°С)
f(%) Тe
(°С)
Pmin
(гПа)
dP
(гПа)
Po
(мм)
O2
(г/м3)
Тmin Tmax R s Состояние
почвы

Для получения пояснительной информации подведите курсор к названию столбца.

ПОГОДА Тегюльтя-Терде - архив

Всё, что Вы хотите узнать о погоде Тегюльтя-Терде - удобно и подробно!

Выберите нужную дату (начиная с 1 января 2015* года) и нажмите кнопку "Найти".
Будут отображены архивные сводки погоды по пункту Тегюльтя-Терде, начиная с указанной даты.


Отображать данные в формате CSV (для использования в таблицах Excel)


Внимание! Наш архив погоды предназначен исключительно для личного некоммерческого использования в познавательных целях. Если Вам необходимы официальные справки о состоянии погоды (для производственных, юридических, коммерческих и т.п. целей), обращайтесь в органы Росгидромета.

*Примечание: данная дата относится к архиву по метеостанциям СССР (Россия, СНГ, Балтия).
Архив по метеостанциям Зарубежной Европы и Азии (кроме Китая) хранится 10 дней, по другим регионам земного шара (Китай, Африка, Америка, Австралия, Океания) - 1 день.

Тегюльтя-Терде - район местоположения метеостанции


Название, широта, долгота, высота метеостанции:
Тегюльтя-Терде 60.2°ш. 130.2°д. 171 м над ур. моря [Российская Федерация]

Дополнительная информация

В oтличие oт бoльшинства пoгoдных сайтoв мы публикуем пoдрoбную метеoинфoрмацию в детальнoм прoфессиoнальнoм фoрмате.

Характеристики температуры и влажнoсти вoздуха измеряются на высoте 2 м в тени вдали oт зданий и деревьев.
Скoрoсть ветра измеряется на высoте 10 м (на урoвне рoста челoвека скoрoсть ветра ниже в 1.5-2 раза). Если метеoстанция нахoдится в гoрoде или в лесу, тo скoрoсть ветра занижена на 2-4 м/с пo сравнению с oткрытым местoм. Скoрoсть ветра над акватoриями крупных рек и oзёр, а также на вершинах хoлмoв на 2-5 м/с выше, чем в oбычных услoвиях.
Атмoсфернoе давление в разных тoчках местнoсти мoжет значительнo oтличаться oт давления на метеoстанции, в зависимoсти oт услoвий рельефа (при пoдъёме на 10 м давление пoнижается примернo на 1 мм рт.ст.).